Regional Weather Roundup
Issued by NWS Charleston, WV

Home | Current Version | Previous Version | Text Only | Print | Product List | Glossary Off
Versions: 1 2 3 4 5 6 7 8 9 10 11 12 13 14 15 16 17 18 19 20 21 22 23 24 25 26 27 28 29 30 31 32 33 34 35 36 37 38 39 40 41 42 43 44 45 46 47 48 49 50

000
ASUS41 KRLX 181710
RWRRLX
West Virginia Regional Weather Roundup
National Weather Service Charleston WV
1200 PM EST THU JAN 18 2018

Note: "fair" indicates few or no clouds below 12,000 feet with no
significant weather and/or obstructions to visibility.

WVZ003-181800-
Northern Panhandle of West Virginia

CITY           SKY/WX    TMP DP  RH WIND       PRES   REMARKS
WHEELING         N/A     18   7  62 SW16G28   30.22F WCI   3
$$

WVZ009-181800-
Northwest West Virginia

CITY           SKY/WX    TMP DP  RH WIND       PRES   REMARKS
PARKERSBURG      N/A     20   9  62 S17G24    30.37F WCI   5
$$

WVZ006-181800-
Western West Virginia

CITY           SKY/WX    TMP DP  RH WIND       PRES   REMARKS
HUNTINGTON       N/A     21   9  59 SW13      30.41F WCI   9
$$

WVZ015-181800-
West Central West Virginia

CITY           SKY/WX    TMP DP  RH WIND       PRES   REMARKS
CHARLESTON       N/A     23   9  55 SW9G18    30.39F
$$

WVZ022-031-181800-
North Central West Virginia

CITY           SKY/WX    TMP DP  RH WIND       PRES   REMARKS
CLARKSBURG       N/A     21   8  57 SW16G28   30.31F WCI   7
MORGANTOWN       N/A     21   8  57 SW12G23   30.26F WCI   9
$$

WVZ025-035-042-045-181800-
Southern West Virginia

CITY           SKY/WX    TMP DP  RH WIND       PRES   REMARKS
BECKLEY          N/A     17   6  62 W14       30.30F HAZE    WCI   3
LOGAN            N/A     21   9  58 VRB3G13   30.37F
BLUEFIELD        N/A     16   3  56 W12G22    30.28F WCI   3
LEWISBURG        N/A     22   8  56 W10       30.27F
$$

WVZ047-181800-
Northern Mountains of West Virginia

CITY           SKY/WX    TMP DP  RH WIND       PRES   REMARKS
ELKINS           N/A     22   6  50 SW3       30.26F
$$

WVZ052-181800-
Eastern Panhandle of West Virginia

CITY           SKY/WX    TMP DP  RH WIND       PRES   REMARKS
MARTINSBURG      N/A     36   4  26 W13       30.11F
PETERSBURG       N/A     32   7  35 SE10      30.15F
$$



USA.gov is the U.S. government's official web portal to all federal, state and local government web resources and services.